FW0984 Weather Reports


Display with metric or nautical units.
time (UTC)temp
F
wind
direction
speed
MPH
gust
MPH
rain 1hr
in
rain 24hr
in
rain mn
in
humidity
%
barometer
mb
20260902000047 85 286 0.0 0.0 0.00 0.00 0.00 71 1016.6
20260901234546 85 286 0.0 0.0 0.00 0.00 0.00 71 1016.6
20260901233046 85 286 0.0 0.0 0.00 0.00 0.00 70 1016.7
20260901231546 86 286 0.0 0.0 0.00 0.00 0.00 70 1016.7
20260901230045 87 286 0.0 0.0 0.00 0.00 0.00 67 1016.7
20260901224548 87 286 0.0 0.0 0.00 0.00 0.00 67 1016.7
20260901223049 87 286 0.0 0.0 0.00 0.00 0.00 66 1016.6
20260901221557 87 264 0.0 0.0 0.00 0.00 0.00 67 1016.6
20260901220052 87 264 0.0 0.0 0.00 0.00 0.00 70 1016.5
20260901214542 88 277 0.0 0.0 0.00 0.00 0.00 65 1016.6
20260901213041 88 277 0.0 0.0 0.00 0.00 0.00 64 1016.5
20260901211541 89 344 0.0 0.0 0.00 0.00 0.00 63 1016.6
20260901210043 89 298 0.0 0.0 0.00 0.00 0.00 61 1016.6
20260901204539 89 300 0.0 0.0 0.00 0.00 0.00 63 1016.7
20260901203038 90 300 0.0 0.0 0.00 0.00 0.00 62 1016.7
20260901201537 91 298 0.0 0.0 0.00 0.00 0.00 59 1016.7
20260901200040 91 272 0.0 0.0 0.00 0.00 0.00 61 1016.8
20260901194535 90 298 0.0 0.0 0.00 0.00 0.00 62 1017.0
20260901193036 90 306 0.0 0.0 0.00 0.00 0.00 64 1017.1
20260901191551 89 282 0.0 0.0 0.00 0.00 0.00 62 1017.3
20260901190035 90 262 0.0 0.0 0.00 0.00 0.00 60 1017.5
20260901184541 90 314 0.0 0.0 0.00 0.00 0.00 62 1017.7
20260901183045 90 17 0.0 0.0 0.00 0.00 0.00 60 1017.7
20260901181532 91 9 0.0 0.0 0.00 0.00 0.00 57 1017.8
20260901180031 90 265 0.0 0.0 0.00 0.00 0.00 60 1017.9
20260901174530 89 279 0.0 0.0 0.00 0.00 0.00 62 1018.0
20260901173028 89 286 0.0 0.0 0.00 0.00 0.00 66 1018.1
20260901171527 90 268 0.0 0.0 0.00 0.00 0.00 64 1018.2
20260901170027 89 250 0.0 0.0 0.00 0.00 0.00 62 1018.3
20260901164539 90 295 0.0 0.0 0.00 0.00 0.00 65 1018.4
20260901163020 89 94 0.0 0.0 0.00 0.00 0.00 66 1018.5
20260901161537 89 288 0.0 0.0 0.00 0.00 0.00 66 1018.6
20260901160014 88 291 0.0 0.0 0.00 0.00 0.00 70 1018.6
20260901154511 88 279 0.0 0.0 0.00 0.00 0.00 71 1018.7
20260901153007 87 272 0.0 0.0 0.00 0.00 0.00 72 1018.8
20260901151506 86 266 0.0 0.0 0.00 0.00 0.00 72 1018.8
20260901150001 85 282 0.0 0.0 0.00 0.00 0.00 77 1018.9
20260901144559 84 253 0.0 0.0 0.00 0.00 0.00 79 1019.0
20260901143058 82 253 0.0 0.0 0.00 0.00 0.00 83 1019.1
20260901141551 76 253 0.0 0.0 0.00 0.00 0.00 95 1019.1
20260901140045 74 198 0.0 0.0 0.00 0.00 0.00 96 1019.2
20260901134542 73 185 0.0 0.0 0.00 0.00 0.00 97 1019.2
20260901133038 73 166 0.0 0.0 0.00 0.00 0.00 97 1019.0
20260901131536 72 166 0.0 0.0 0.00 0.00 0.00 96 1019.1
20260901130034 71 166 0.0 0.0 0.00 0.00 0.00 96 1019.2
20260901124534 71 166 0.0 0.0 0.00 0.00 0.00 96 1019.3
20260901123032 70 166 0.0 0.0 0.00 0.00 0.00 96 1019.4
20260901121529 69 166 0.0 0.0 0.00 0.00 0.00 95 1019.4
20260901120030 69 166 0.0 0.0 0.00 0.00 0.00 95 1019.1
20260901114524 69 166 0.0 0.0 0.00 0.00 0.00 95 1018.9
20260901113020 69 166 0.0 0.0 0.00 0.00 0.00 95 1018.6
20260901111519 69 166 0.0 0.0 0.00 0.00 0.00 94 1018.5
20260901110016 69 166 0.0 0.0 0.00 0.00 0.00 94 1018.3
20260901104515 69 166 0.0 0.0 0.00 0.00 0.00 94 1018.3
20260901103011 70 166 0.0 0.0 0.00 0.00 0.00 94 1018.2
20260901101510 70 166 0.0 0.0 0.00 0.00 0.00 94 1018.2
20260901100008 70 166 0.0 0.0 0.00 0.00 0.00 94 1018.0
20260901094507 70 166 0.0 0.0 0.00 0.00 0.00 94 1017.9
20260901093005 70 166 0.0 0.0 0.00 0.00 0.00 94 1017.8
20260901091506 70 166 0.0 0.0 0.00 0.00 0.00 93 1017.9
20260901090007 71 166 0.0 0.0 0.00 0.00 0.00 94 1017.7
20260901084604 71 166 0.0 0.0 0.00 0.00 0.00 93 1017.5
20260901083059 71 166 0.0 0.0 0.00 0.00 0.00 93 1017.5
20260901081556 71 166 0.0 0.0 0.00 0.00 0.00 93 1017.5
20260901080058 71 166 0.0 0.0 0.00 0.00 0.00 93 1017.6
20260901074553 72 166 0.0 0.0 0.00 0.00 0.00 92 1017.4
20260901073059 72 166 0.0 0.0 0.00 0.00 0.00 92 1017.4
20260901071551 72 166 0.0 0.0 0.00 0.00 0.00 92 1017.3
20260901064549 72 166 0.0 0.0 0.00 0.00 0.00 92 1017.2
20260901063047 72 166 0.0 0.0 0.00 0.00 0.00 93 1017.1
20260901061546 72 166 0.0 0.0 0.00 0.00 0.00 93 1017.0
20260901060044 73 166 0.0 0.0 0.00 0.00 0.00 92 1017.0
20260901054543 73 166 0.0 0.0 0.00 0.00 0.00 92 1017.5
20260901053044 73 166 0.0 0.0 0.00 0.00 0.00 92 1017.5
20260901051543 73 166 0.0 0.0 0.00 0.00 0.00 91 1017.4
20260901050038 73 166 0.0 0.0 0.00 0.00 0.00 91 1017.5
20260901044552 74 166 0.0 0.0 0.00 0.00 0.00 91 1017.6
20260901043034 74 166 0.0 0.0 0.00 0.00 0.00 91 1017.9
20260901041532 74 166 0.0 0.0 0.00 0.00 0.00 90 1018.1
20260901040025 74 166 0.0 0.0 0.00 0.00 0.00 90 1018.1
20260901034532 74 166 0.0 0.0 0.00 0.00 0.00 90 1017.9
20260901033046 75 166 0.0 0.0 0.00 0.00 0.00 89 1018.1
20260901031523 75 166 0.0 0.0 0.00 0.00 0.00 89 1018.2
20260901030028 75 166 0.0 0.0 0.00 0.00 0.00 88 1018.2
20260901024526 76 166 0.0 0.0 0.00 0.00 0.00 87 1018.1
20260901023021 76 166 0.0 0.0 0.00 0.00 0.00 87 1018.2
20260901021521 77 166 0.0 0.0 0.00 0.00 0.00 86 1018.2
20260901020021 78 166 0.0 0.0 0.00 0.00 0.00 85 1018.2
20260901014520 78 166 0.0 0.0 0.00 0.00 0.00 84 1018.1
20260901013020 79 166 0.0 0.0 0.00 0.00 0.00 83 1017.9
20260901011519 80 166 0.0 0.0 0.00 0.00 0.00 80 1017.9
20260901010020 80 166 0.0 0.0 0.00 0.00 0.00 78 1017.8
20260901004517 81 166 0.0 0.0 0.00 0.00 0.00 78 1017.6
20260901003033 82 166 0.0 0.0 0.00 0.00 0.00 76 1017.4
20260901001518 83 293 0.0 0.0 0.00 0.00 0.00 73 1017.1